#timestamp,LO_Frequency,Hit,StdDev 
1671598815.3,286047000.8,N
1671598835.2,286046999.9,N
1671598855.0,286047001.2,N
1671598855.9,286047001.2,N
1671598875.7,286047000.4,N
1671598895.6,286047001.2,N
1671598915.4,286047001.6,N
1671598935.3,286047004.3,Y
1671598955.1,286047000.0,P
1671598975.8,286047002.4,P
1671598995.7,286046999.8,N
1671599015.5,286047000.7,N
1671599035.4,286046998.3,N
1671599055.2,286046998.3,N
1671599075.0,286047002.5,N
1671599075.9,286047002.5,N
1671599095.8,286047002.7,N
1671599115.6,286046999.7,N
1671599135.4,286047000.4,N
1671599155.3,286047000.0,N
1671599175.1,286046999.8,N
1671599195.9,286046999.7,N
1671599215.7,286046999.9,N
1671599235.5,286047002.1,N
1671599255.4,286047000.2,N
1671599275.2,286047000.3,N
1671599295.0,286047000.6,N
1671599296.0,286047000.6,N
1671599315.8,286047000.0,N
1671599335.6,286047000.0,N
1671599355.5,286047000.1,N
1671599375.3,286047002.0,N
1671599395.1,286047002.5,N
1671599415.9,286047001.3,N
1671599435.7,286047000.2,N
1671599455.6,286047000.5,N
1671599475.4,286047000.7,N
1671599495.2,286046998.2,N
1671599515.1,286046998.5,N
1671599516.0,286046998.5,N
1671599535.8,286047001.2,N
1671599555.6,286046998.5,N
1671599575.5,286047001.2,N
1671599595.3,286047000.7,N
1671599615.2,286046998.4,N
1671599635.9,286046998.6,N
1671599655.7,286046998.9,N
1671599675.6,286046998.9,N
1671599695.4,286046999.6,N
1671599715.2,286046998.6,N
1671599735.1,286046998.8,N
1671599736.0,286046998.8,N
1671599755.8,286047001.1,N
1671599775.7,286046998.8,N
1671599795.5,286046998.5,N
1671599815.3,286046998.4,N
1671599835.2,286047002.4,N
1671599855.0,286046999.9,N
1671599855.9,286046999.9,N
1671599875.7,286047000.3,N
1671599895.6,286047000.9,N
1671599915.4,286046998.7,N
1671599935.3,286046995.0,Y
1671599955.1,286046993.7,P
1671599975.8,286046993.5,N
1671599995.7,286046995.2,N
1671600015.5,286046996.3,N
1671600035.4,286046996.4,N
1671600055.2,286046995.0,N
1671600075.0,286046994.9,N
1671600075.9,286046994.9,N
1671600095.8,286046996.7,N
1671600115.6,286046999.6,N
1671600135.5,286046998.7,N
1671600155.3,286046999.7,N
1671600175.1,286047000.2,N
1671600195.9,286047000.0,N
1671600215.7,286047000.4,N
1671600235.5,286046998.2,N
1671600255.4,286047000.7,N
1671600275.2,286047000.8,N
1671600295.1,286046998.2,N
1671600296.0,286046998.2,N
1671600315.8,286047000.8,N
1671600335.2,286046998.9,N
1671600355.0,286046995.0,N
1671600355.9,286046995.0,N
1671600375.8,286046995.6,N
1671600395.6,286046995.1,N
1671600415.5,286046997.9,N
1671600435.3,286046994.9,N
1671600455.1,286046999.2,N
1671600475.9,286046998.6,N
1671600495.7,286046996.5,N
1671600515.5,286046998.8,N
1671600535.4,286046998.9,N
1671600555.2,286046999.4,N
1671600575.1,286046999.5,N
1671600576.0,286046999.5,N
1671600595.8,286046998.6,N
1671600615.7,286046998.9,N
1671600635.3,286046998.7,N
1671600655.1,286046999.2,N
1671600656.0,286046999.2,N
1671600675.8,286046999.4,N
1671600695.7,286047001.1,N
1671600715.5,286046996.5,N
1671600735.4,286046999.5,N
1671600755.2,286046996.5,N
1671600775.0,286046999.1,N
1671600775.9,286046999.1,N
1671600795.8,286046997.4,N
1671600815.6,286046997.0,N
1671600835.4,286046999.0,N
1671600855.3,286047000.9,N
1671600875.1,286047002.8,N
1671600895.9,286047002.5,N
1671600915.7,286047000.1,N
1671600935.5,286046998.6,N
1671600955.4,286046998.1,N
1671600975.2,286046998.9,N
1671600995.0,286047000.5,N
1671600995.9,286047000.5,N
1671601015.8,286047000.1,N
1671601035.6,286047000.6,N
1671601055.5,286047000.0,N
1671601075.3,286047000.1,N
1671601095.1,286046998.7,N
1671601115.9,286046999.1,N
1671601135.7,286047000.8,N
1671601155.5,286046998.5,N
1671601175.4,286047000.4,N
1671601195.2,286047000.0,N
1671601215.1,286047000.2,N
1671601216.0,286047000.2,N
1671601235.8,286046996.9,N
1671601255.6,286046999.6,N
1671601275.5,286046996.3,N
1671601295.3,286046996.3,N
1671601315.2,286046996.1,N
1671601335.9,286046996.7,N
1671601355.7,286046997.2,N
1671601375.6,286046995.9,N
1671601395.4,286046995.3,N
1671601415.2,286046998.9,N
1671601435.1,286046998.9,N
1671601436.0,286046998.9,N
1671601455.8,286046998.3,N
1671601475.7,286046998.6,N
1671601495.5,286046998.4,N
1671601515.3,286046999.0,N
1671601535.2,286046998.8,N
1671601555.0,286047000.5,N
1671601555.9,286047000.5,N
1671601575.8,286047000.2,N
1671601595.6,286047003.6,N
1671601615.4,286047001.4,N
1671601635.3,286047004.0,N
1671601655.1,286047000.3,N
1671601675.9,286047000.1,N
1671601695.7,286047000.8,N
1671601715.5,286047002.5,N
1671601735.4,286046998.5,N
1671601755.2,286047000.1,N
1671601775.0,286047001.2,N
1671601775.9,286047001.2,N
1671601795.8,286046998.6,N
1671601815.6,286047001.2,N
1671601835.5,286047000.7,N
1671601855.3,286046998.4,N
1671601875.1,286046998.2,N
1671601895.9,286046999.4,N
1671601915.7,286046999.3,N
1671601935.5,286046998.2,N
1671601955.4,286046998.8,N
1671601975.2,286046996.6,N
1671601995.1,286046998.5,N
1671601996.0,286046998.5,N
1671602015.8,286047001.2,N
1671602035.6,286046998.6,N
1671602055.5,286047001.1,N
1671602075.3,286046998.5,N
1671602095.1,286046998.3,N
1671602115.9,286047000.7,N
1671602135.7,286047000.2,N
1671602155.6,286047001.6,N
1671602175.4,286047001.5,N
1671602195.2,286047002.8,N
1671602215.1,286047001.9,N
1671602216.0,286047001.9,N
1671602235.8,286047001.5,N
1671602255.7,286047004.0,N
1671602275.5,286047002.2,N
1671602295.4,286047002.6,N
1671602315.2,286047000.0,N
1671602335.0,286047001.8,N
1671602335.9,286047001.8,N
1671602355.8,286047002.1,N
1671602375.6,286047001.9,N
1671602395.4,286046999.9,N
